STARLINK-4734, 53790

Orbit data source: Space-Track

STARLINK-4734, 53790 is a payload satellite owned by SpaceX/Seattle (US) in LEO that was launched on Sun, 11 Sep 2022 UTC via an FALCON 9 launch vehicle from the Air Force Eastern Test Range (AFETR). Payload-class satellites include a variety of spacecraft equipped with specific instruments for various scientific and technological missions. These include communications satellites like Starlink; space stations such as the ISS; scientific satellites like the Hubble; Earth observation satellites from companies like Planet Labs, Umbra, and HawkEye 360; GPS; miniature CubeSats for education and research; and military/defense satellites.

Loading next visibility...
Identifier
53790, 2022-111T
Orbit
LEO
Country
Flag of USUS
Related business
Manufacturer
SpaceX/Seattle
Mission
Operational Commercial Communications
Bus & Motor
STARLINK, Unknown motor
Mass
305 kg wet, ~290 kg dry
Launch date (UTC)
2022-09-11 (3 years ago)
Launch vehicle
FALCON 9
Launch site
Air Force Eastern Test Range (AFETR)
Object type
Payload
Rocket body
Debris
Shape & HBR
Box + 1 Pan, 10.1 m
Radar Cross Section
13.562 m², Large (>1 m²)

Expand to show TLE details & history
Last TLE update: 14 hours ago

TLE from 14 hours ago
0 STARLINK-4734
1 53790U 22111T   25286.54257018 -.00000660  00000-0 -23358-4 0  9995
2 53790  53.2185 214.5690 0001560  95.6370 264.4801 15.08842125171481
Epoch: 2025-10-13T13:01Z
TLE epoch observation values (Epoch: 2025-10-13T13:01:18.063Z)
Latitude
0.00005°
Longitude
-3.10008°
Altitude
540.738 km
Speed
7.593 km/s
True Right ascension
14h 18m 16s
True Declination
0° 00' 00"
Sunlit
Object was in daylight at epoch
Visualization orbit readout
Latitude
Unknown
Longitude
Unknown
Altitude
Unknown
Speed
Unknown
Apparent Right ascension
Unknown
Apparent Declination
Unknown
Sunlit
N/A
Visualization observer readout
Local Sidereal Time
21:21:02
Azimuth
Unknown
Elevation
Unknown
Doppler factor
Unknown
Orbital elements
Apogee altitude
541.061 km
Perigee altitude
538.902 km
Semi-major axis
6,918.119 km
Eccentricity
0.00016
Inclination
53.2185°
RAAN
214.569°
Arg. of periapsis
95.637°
True anomaly
264.46231°
Mean anomaly
264.4801°
Eccentric anomaly
264.4712°
Mean motion
3.77191 °/min
Orbital period
95.44 mins
BSTAR
-0.000023358
Loading maneuver chart data...
Computing Atmospheric mass density...
Loading historical data...
Loading historical data...
Loading historical data...
Loading historical data...
Loading historical data...
Loading historical data...
Loading historical data...

Documentation

Showing up to 5 results
|